EN

Hourly Weather Dzieszkowo

Today, 20 October, Tuesday

Time Temperature Precipitation Wind Pressure Humidity
00:00 +6°C° 0 mm 2 mps 764 mmHg 90%
01:00 +6°C° 0 mm 2 mps 764 mmHg 92%
02:00 +4°C° 0 mm 3 mps 763 mmHg 92%
03:00 +4°C° 0 mm 3 mps 763 mmHg 93%
04:00 +4°C° 0 mm 3 mps 763 mmHg 93%
05:00 +5°C° 0 mm 3 mps 762 mmHg 93%
06:00 +5°C° 0 mm 3 mps 762 mmHg 93%
07:00 +5°C° 0 mm 3 mps 762 mmHg 95%
08:00 +6°C° 0 mm 4 mps 762 mmHg 87%
09:00 +7°C° 0 mm 4 mps 761 mmHg 80%
10:00 +9°C° 0 mm 5 mps 761 mmHg 72%
11:00 +9°C° 0 mm 5 mps 760 mmHg 69%
12:00 +10°C° 0 mm 6 mps 760 mmHg 66%
13:00 +10°C° 0 mm 6 mps 760 mmHg 63%
14:00 +10°C° 0 mm 6 mps 759 mmHg 65%
15:00 +10°C° 0 mm 5 mps 758 mmHg 67%
16:00 +10°C° 0 mm 5 mps 757 mmHg 69%
17:00 +9°C° 0 mm 5 mps 757 mmHg 72%
18:00 +9°C° 0 mm 5 mps 757 mmHg 74%
19:00 +9°C° 0 mm 5 mps 756 mmHg 76%
20:00 +8°C° 0.4 mm 5 mps 756 mmHg 80%
21:00 +8°C° 0.4 mm 4 mps 756 mmHg 84%
22:00 +8°C° 0.4 mm 4 mps 756 mmHg 88%
23:00 +10°C° 0.4 mm 4 mps 756 mmHg 89%

Tomorrow, 21 October, Wednesday

Time Temperature Precipitation Wind Pressure Humidity
00:00 +10°C° 0.4 mm 4 mps 756 mmHg 91%
01:00 +10°C° 0.4 mm 4 mps 756 mmHg 92%
02:00 +10°C° 0.1 mm 4 mps 756 mmHg 93%
03:00 +10°C° 0.1 mm 4 mps 756 mmHg 93%
04:00 +10°C° 0.1 mm 3 mps 756 mmHg 94%
05:00 +10°C° 0 mm 4 mps 756 mmHg 94%
06:00 +11°C° 0 mm 4 mps 756 mmHg 93%
07:00 +11°C° 0 mm 4 mps 756 mmHg 93%
08:00 +11°C° 0 mm 4 mps 756 mmHg 91%
09:00 +12°C° 0 mm 4 mps 756 mmHg 89%
10:00 +12°C° 0 mm 5 mps 755 mmHg 87%
11:00 +12°C° 0 mm 5 mps 755 mmHg 85%
12:00 +12°C° 0 mm 5 mps 755 mmHg 83%
13:00 +12°C° 0 mm 5 mps 755 mmHg 80%
14:00 +12°C° 0.1 mm 5 mps 754 mmHg 78%
15:00 +12°C° 0.1 mm 5 mps 754 mmHg 76%
16:00 +12°C° 0.1 mm 5 mps 754 mmHg 74%
17:00 +12°C° 0 mm 5 mps 754 mmHg 73%
18:00 +13°C° 0 mm 6 mps 754 mmHg 72%
19:00 +13°C° 0 mm 6 mps 754 mmHg 70%
20:00 +13°C° 0 mm 6 mps 754 mmHg 69%
21:00 +14°C° 0 mm 7 mps 754 mmHg 67%
22:00 +14°C° 0 mm 7 mps 753 mmHg 66%
23:00 +14°C° 0 mm 7 mps 754 mmHg 69%

Day after tomorrow, 22 October, Thursday

Time Temperature Precipitation Wind Pressure Humidity
00:00 +14°C° 0 mm 7 mps 754 mmHg 72%
01:00 +14°C° 0 mm 7 mps 755 mmHg 75%
02:00 +13°C° 0 mm 6 mps 755 mmHg 80%
03:00 +13°C° 0 mm 5 mps 755 mmHg 84%
04:00 +13°C° 0 mm 5 mps 755 mmHg 89%
05:00 +12°C° 0 mm 5 mps 756 mmHg 89%
06:00 +12°C° 0 mm 5 mps 756 mmHg 90%
07:00 +12°C° 0 mm 5 mps 756 mmHg 91%
08:00 +13°C° 0 mm 5 mps 756 mmHg 85%
09:00 +14°C° 0 mm 5 mps 756 mmHg 80%
10:00 +16°C° 0 mm 6 mps 756 mmHg 74%
11:00 +17°C° 0 mm 6 mps 756 mmHg 71%
12:00 +19°C° 0 mm 6 mps 756 mmHg 68%
13:00 +20°C° 0 mm 6 mps 756 mmHg 64%
14:00 +19°C° 0 mm 6 mps 756 mmHg 67%
15:00 +19°C° 0 mm 5 mps 756 mmHg 70%
16:00 +17°C° 0 mm 5 mps 756 mmHg 72%
17:00 +16°C° 0 mm 5 mps 756 mmHg 75%
18:00 +17°C° 0 mm 4 mps 756 mmHg 77%
19:00 +15°C° 0 mm 4 mps 756 mmHg 80%
20:00 +14°C° 0 mm 4 mps 756 mmHg 82%
21:00 +14°C° 0 mm 4 mps 755 mmHg 83%
22:00 +14°C° 0 mm 4 mps 755 mmHg 85%
23:00 +14°C° 0.9 mm 5 mps 755 mmHg 87%

23 October, Friday

Time Temperature Precipitation Wind Pressure Humidity
00:00 +14°C° 0.9 mm 5 mps 755 mmHg 89%
01:00 +14°C° 0.9 mm 6 mps 755 mmHg 91%
02:00 +14°C° 0.2 mm 6 mps 755 mmHg 91%
03:00 +14°C° 0.2 mm 5 mps 755 mmHg 91%
04:00 +14°C° 0.2 mm 5 mps 755 mmHg 90%
05:00 +14°C° 0 mm 5 mps 755 mmHg 91%
06:00 +13°C° 0 mm 5 mps 755 mmHg 91%
07:00 +12°C° 0 mm 5 mps 755 mmHg 92%
08:00 +13°C° 0 mm 5 mps 755 mmHg 87%
09:00 +13°C° 0 mm 6 mps 756 mmHg 83%
10:00 +13°C° 0 mm 6 mps 756 mmHg 78%
11:00 +14°C° 0 mm 6 mps 756 mmHg 76%
12:00 +14°C° 0 mm 6 mps 756 mmHg 73%
13:00 +14°C° 0 mm 5 mps 756 mmHg 70%
14:00 +14°C° 0 mm 4 mps 756 mmHg 72%
15:00 +13°C° 0 mm 3 mps 756 mmHg 75%
16:00 +13°C° 0 mm 3 mps 756 mmHg 77%
17:00 +13°C° 0 mm 2 mps 756 mmHg 80%
18:00 +13°C° 0 mm 2 mps 756 mmHg 83%
19:00 +12°C° 0 mm 2 mps 756 mmHg 87%
20:00 +12°C° 0 mm 2 mps 756 mmHg 87%
21:00 +12°C° 0 mm 2 mps 756 mmHg 88%
22:00 +10°C° 0 mm 2 mps 756 mmHg 89%
23:00 +10°C° 0 mm 2 mps 756 mmHg 89%

24 October, Saturday

Time Temperature Precipitation Wind Pressure Humidity
00:00 +10°C° 0 mm 2 mps 756 mmHg 89%
01:00 +10°C° 0 mm 2 mps 756 mmHg 90%
02:00 +10°C° 0.1 mm 3 mps 756 mmHg 90%
03:00 +10°C° 0.1 mm 3 mps 755 mmHg 91%
04:00 +10°C° 0.1 mm 3 mps 755 mmHg 91%
05:00 +10°C° 0.4 mm 4 mps 755 mmHg 89%
06:00 +9°C° 0.4 mm 5 mps 756 mmHg 88%
07:00 +9°C° 0.4 mm 5 mps 756 mmHg 86%
08:00 +9°C° 0.3 mm 6 mps 756 mmHg 84%
09:00 +10°C° 0.3 mm 6 mps 756 mmHg 82%
10:00 +10°C° 0.3 mm 7 mps 756 mmHg 79%
11:00 +11°C° 0.1 mm 7 mps 757 mmHg 74%
12:00 +11°C° 0.1 mm 7 mps 757 mmHg 70%
13:00 +11°C° 0.1 mm 7 mps 758 mmHg 65%
14:00 +11°C° 0 mm 6 mps 758 mmHg 66%
15:00 +10°C° 0 mm 5 mps 759 mmHg 68%
16:00 +10°C° 0 mm 5 mps 759 mmHg 69%
17:00 +10°C° 0 mm 4 mps 760 mmHg 73%
18:00 +8°C° 0 mm 4 mps 760 mmHg 77%
19:00 +8°C° 0 mm 3 mps 760 mmHg 81%
20:00 +8°C° 0 mm 3 mps 761 mmHg 83%
21:00 +8°C° 0 mm 3 mps 761 mmHg 85%
22:00 +7°C° 0 mm 3 mps 761 mmHg 86%
23:00 +7°C° 0 mm 3 mps 761 mmHg 87%

25 October, Sunday

Time Temperature Precipitation Wind Pressure Humidity
00:00 +7°C° 0 mm 2 mps 761 mmHg 88%
01:00 +6°C° 0 mm 2 mps 761 mmHg 89%
02:00 +6°C° 0 mm 2 mps 761 mmHg 89%
03:00 +6°C° 0 mm 2 mps 761 mmHg 90%
04:00 +5°C° 0 mm 2 mps 761 mmHg 90%
05:00 +5°C° 0 mm 2 mps 761 mmHg 90%
06:00 +4°C° 0 mm 3 mps 761 mmHg 91%
07:00 +4°C° 0 mm 3 mps 761 mmHg 91%
08:00 +7°C° 0 mm 3 mps 761 mmHg 87%
09:00 +8°C° 0 mm 3 mps 761 mmHg 82%
10:00 +10°C° 0 mm 4 mps 760 mmHg 78%
11:00 +11°C° 0 mm 4 mps 760 mmHg 76%
12:00 +12°C° 0 mm 4 mps 760 mmHg 74%
13:00 +13°C° 0 mm 4 mps 760 mmHg 71%
14:00 +13°C° 0 mm 4 mps 759 mmHg 74%
15:00 +13°C° 0 mm 4 mps 759 mmHg 76%
16:00 +12°C° 0 mm 3 mps 759 mmHg 78%
17:00 +11°C° 0 mm 4 mps 759 mmHg 81%
18:00 +11°C° 0 mm 4 mps 758 mmHg 84%
19:00 +10°C° 0 mm 4 mps 758 mmHg 87%
20:00 +10°C° 0 mm 4 mps 758 mmHg 87%
21:00 +10°C° 0 mm 4 mps 758 mmHg 88%
22:00 +9°C° 0 mm 5 mps 758 mmHg 88%
23:00 +8°C° 0 mm 5 mps 758 mmHg 88%

26 October, Monday

Time Temperature Precipitation Wind Pressure Humidity
00:00 +8°C° 0 mm 5 mps 758 mmHg 89%
01:00 +8°C° 0 mm 5 mps 758 mmHg 89%
02:00 +7°C° 0 mm 4 mps 757 mmHg 89%
03:00 +7°C° 0 mm 4 mps 757 mmHg 90%
04:00 +7°C° 0 mm 4 mps 757 mmHg 90%
05:00 +7°C° 0 mm 4 mps 757 mmHg 90%
06:00 +7°C° 0 mm 4 mps 757 mmHg 90%
07:00 +6°C° 0 mm 4 mps 756 mmHg 90%
08:00 +7°C° 0 mm 4 mps 756 mmHg 86%
09:00 +8°C° 0 mm 4 mps 756 mmHg 82%
10:00 +11°C° 0 mm 4 mps 756 mmHg 77%
11:00 +11°C° 0 mm 4 mps 756 mmHg 75%
12:00 +12°C° 0 mm 4 mps 756 mmHg 73%
13:00 +12°C° 0 mm 4 mps 756 mmHg 71%
14:00 +12°C° 0 mm 3 mps 756 mmHg 74%
15:00 +12°C° 0 mm 3 mps 756 mmHg 77%
16:00 +12°C° 0 mm 2 mps 756 mmHg 79%
17:00 +12°C° 0 mm 2 mps 756 mmHg 82%
18:00 +10°C° 0 mm 2 mps 756 mmHg 84%
19:00 +10°C° 0 mm 3 mps 756 mmHg 86%
20:00 +10°C° 0 mm 2 mps 756 mmHg 86%
21:00 +10°C° 0 mm 2 mps 756 mmHg 86%
22:00 +10°C° 0 mm 2 mps 756 mmHg 86%
23:00 +9°C° 0 mm 2 mps 756 mmHg 89%
Show more